Location: Del Amo
(33.8464°N, 118.2104°W)
Time: 09:26:37
(UTC+00:00)

Gurwin Techsat 1B - Visible Passes

Search period start: 06 October 2024 00:00
Search period end: 16 October 2024 00:00
Orbit: 810 x 812 km, 98.9° (Epoch: 05 October)

Date Brightness Start Highest point End Pass type
(mag) Time Alt. Az. Time Alt. Az. Time Alt. Az.
06 Oct 8.7 11:35:44 10° NNE 11:41:02 74° ESE 11:42:07 56° SSE visible
06 Oct 10.4 13:18:16 10° NW 13:20:12 12° WNW 13:22:10 10° W visible
07 Oct 9.6 11:12:39 10° NNE 11:17:41 42° E 11:18:24 40° ESE visible
07 Oct 9.9 12:53:23 10° NNW 12:57:12 20° WNW 12:59:34 15° W visible
08 Oct 10.5 10:49:57 10° NE 10:54:15 25° E 10:54:42 24° ESE visible
08 Oct 9.2 12:29:22 10° N 12:34:05 34° WNW 12:35:52 27° WSW visible
09 Oct 11.2 10:27:59 10° ENE 10:30:45 14° E 10:30:59 14° E visible
09 Oct 8.6 12:05:43 10° N 12:10:54 57° WNW 12:12:09 45° WSW visible
10 Oct 8.5 11:42:18 10° NNE 11:47:38 84° ESE 11:48:26 66° S visible
10 Oct 10.4 13:25:57 10° NW 13:26:43 10° WNW 13:27:30 10° WNW visible
11 Oct 9.3 11:19:10 10° NNE 11:24:18 49° E 11:24:42 48° ESE visible
11 Oct 10.0 13:00:16 10° NNW 13:03:43 18° WNW 13:05:52 14° W visible
12 Oct 10.3 10:56:20 10° NE 11:00:53 28° E 11:00:59 28° E visible
12 Oct 9.4 12:36:06 10° N 12:40:38 29° WNW 12:42:09 25° W visible
13 Oct 11.1 10:34:05 10° NE 10:37:15 17° E 10:37:15 17° E visible
13 Oct 8.7 12:12:21 10° N 12:17:28 49° WNW 12:18:24 44° WSW visible
14 Oct 8.4 11:48:53 10° NNE 11:54:13 85° WNW 11:54:39 75° SW visible
15 Oct 9.1 11:25:39 10° NNE 11:30:53 57° E 11:30:55 56° ESE visible
15 Oct 10.1 13:07:10 10° NNW 13:10:13 16° WNW 13:12:05 13° W visible
